Puerto Banus, Marbella

>

This is an optional block (switch it off / on) in the settings - file ($SITE['banners'] = false;)

You can display ads, any other important text or photo’s using text / html or PHP code.

You can place one or more at the top and or bottom and it can all be different for content / size .



Meteosat more information blitzortung!


Radar lluvias  rain snow radar


Visita nuestra red de sitios de meteo:

Documentation for the template used

MeteoibericaRed estaciones Meteorologicas

MeteoclimaticRed estaciones Meteorologicas



Sin Advertencias climatologicas .En este momento tenemos Nivel Verde.    No hay Alarmas

Pagina Historial Weather Underground texto

Diario Resumen Diciembre 4, 2017 Unidades:  impérial    Métrico   Tanto
« Anterior Dia
Siguiente Dia »
Diario Semana Mensual Anual Personalizada
  Maxima: Minima: Media:
Temperatura: TemperatureC °F 7.8 °F 11.6 °F
Punto de rocío: DewpointC °F 1.0 °F 6 °F
Humedad: Humidity % 60 % 68 %
Velocidad del Viento: WindSpeedKMH mph 5.6 mph 20.2 mph
Ráfagas de viento: WindSpeedGustKMH mph - -
Viento:- - ESE
Pression baro: PressurehPa in 1029.0 in -
Précipitaciones: 0.0 in    
Historical Graphs
 
 
Datos de tabla para Diciembre 4, 2017
Tiempo Temperatura Punto de rocío Pression baro Viento Velocidad del Viento Ráfagas de viento Humedad Las precipitaciones Rate ( Hora )
TemperatureC °F DewpointC °F PressurehPa in Calm     Humidity % HourlyPrecipMM in
00:02 9.5 °F 4.9 °F 1029.0 in NNW 18.5 mph 18.5 mph 73 % 0.0 in
00:07 9.5 °F 4.9 °F 1029.3 in North 18.5 mph 18.5 mph 73 % 0.0 in
00:12 9.5 °F 4.9 °F 1029.3 in NNE 18.5 mph 18.5 mph 73 % 0.0 in
00:17 9.5 °F 4.9 °F 1029.3 in North 20.4 mph 20.4 mph 73 % 0.0 in
00:22 9.6 °F 4.9 °F 1029.3 in North 18.5 mph 18.5 mph 73 % 0.0 in
00:27 9.6 °F 4.9 °F 1029.3 in NNW 18.5 mph 18.5 mph 73 % 0.0 in
00:32 9.6 °F 4.9 °F 1029.3 in NNE 18.5 mph 18.5 mph 73 % 0.0 in
00:37 9.6 °F 4.9 °F 1029.3 in NNE 20.4 mph 20.4 mph 73 % 0.0 in
00:47 9.5 °F 4.9 °F 1029.3 in North 18.5 mph 18.5 mph 73 % 0.0 in
00:48 9.5 °F 4.9 °F 1029.3 in North 18.5 mph 18.5 mph 73 % 0.0 in
00:53 9.5 °F 4.9 °F 1029.3 in North 14.8 mph 14.8 mph 73 % 0.0 in
00:58 9.5 °F 4.9 °F 1029.3 in NNE 16.7 mph 16.7 mph 73 % 0.0 in
01:03 9.6 °F 4.9 °F 1029.3 in North 16.7 mph 16.7 mph 73 % 0.0 in
01:08 9.6 °F 4.9 °F 1029.3 in NNE 14.8 mph 14.8 mph 73 % 0.0 in
01:13 9.6 °F 4.9 °F 1029.3 in North 16.7 mph 16.7 mph 73 % 0.0 in
01:14 9.6 °F 4.9 °F 1029.3 in North 14.8 mph 14.8 mph 73 % 0.0 in
01:24 9.5 °F 4.9 °F 1029.3 in North 16.7 mph 16.7 mph 73 % 0.0 in
01:29 9.4 °F 4.8 °F 1029.3 in North 16.7 mph 16.7 mph 73 % 0.0 in
01:34 9.4 °F 4.8 °F 1029.3 in North 16.1 mph 16.1 mph 73 % 0.0 in
01:39 9.5 °F 4.9 °F 1029.3 in North 16.7 mph 16.7 mph 73 % 0.0 in
01:44 9.5 °F 4.9 °F 1029.0 in North 18.5 mph 18.5 mph 73 % 0.0 in
01:49 9.5 °F 4.9 °F 1029.0 in NNE 14.8 mph 14.8 mph 73 % 0.0 in
01:54 9.5 °F 4.7 °F 1029.0 in NNE 14.8 mph 14.8 mph 72 % 0.0 in
01:59 9.6 °F 4.8 °F 1029.0 in NNE 18.5 mph 18.5 mph 72 % 0.0 in
02:04 9.5 °F 4.7 °F 1029.0 in North 14.8 mph 14.8 mph 72 % 0.0 in
02:09 9.5 °F 4.7 °F 1029.3 in North 14.8 mph 14.8 mph 72 % 0.0 in
02:14 9.5 °F 4.7 °F 1029.0 in North 13.0 mph 13.0 mph 72 % 0.0 in
02:19 9.4 °F 4.7 °F 1029.3 in North 18.5 mph 18.5 mph 72 % 0.0 in
02:24 9.4 °F 4.7 °F 1029.0 in North 17.7 mph 17.7 mph 72 % 0.0 in
02:29 9.4 °F 4.7 °F 1029.0 in North 14.8 mph 14.8 mph 72 % 0.0 in
02:35 9.4 °F 4.6 °F 1029.0 in NNE 16.1 mph 16.1 mph 72 % 0.0 in
02:40 9.4 °F 4.6 °F 1029.0 in North 14.8 mph 14.8 mph 72 % 0.0 in
02:45 9.3 °F 4.7 °F 1029.0 in North 13.0 mph 13.0 mph 73 % 0.0 in
02:50 9.3 °F 4.7 °F 1029.0 in NNE 13.0 mph 13.0 mph 73 % 0.0 in
02:55 9.3 °F 4.5 °F 1029.0 in North 16.1 mph 16.1 mph 72 % 0.0 in
03:00 9.3 °F 4.5 °F 1029.0 in North 11.1 mph 11.1 mph 72 % 0.0 in
03:05 9.3 °F 4.5 °F 1029.3 in North 14.8 mph 14.8 mph 72 % 0.0 in
03:10 9.3 °F 4.6 °F 1029.3 in North 11.1 mph 11.1 mph 72 % 0.0 in
03:15 9.3 °F 4.6 °F 1029.0 in North 14.8 mph 14.8 mph 72 % 0.0 in
03:20 9.3 °F 4.6 °F 1029.3 in North 14.8 mph 14.8 mph 72 % 0.0 in
03:25 9.4 °F 4.6 °F 1029.3 in North 16.7 mph 16.7 mph 72 % 0.0 in
03:27 9.4 °F 4.4 °F 1029.3 in North 16.7 mph 16.7 mph 71 % 0.0 in
03:32 9.3 °F 4.3 °F 1029.3 in North 14.8 mph 14.8 mph 71 % 0.0 in
03:37 9.2 °F 4.4 °F 1029.3 in North 14.8 mph 14.8 mph 72 % 0.0 in
03:42 9.1 °F 4.3 °F 1029.3 in North 13.0 mph 13.0 mph 72 % 0.0 in
03:47 9.1 °F 4.3 °F 1029.3 in North 14.8 mph 14.8 mph 72 % 0.0 in
03:52 9.1 °F 4.1 °F 1029.3 in NNW 11.1 mph 11.1 mph 71 % 0.0 in
04:02 8.9 °F 4.1 °F 1029.3 in North 14.8 mph 14.8 mph 72 % 0.0 in
04:07 8.8 °F 4.1 °F 1029.3 in NNW 16.7 mph 16.7 mph 72 % 0.0 in
04:12 8.8 °F 4.1 °F 1029.3 in North 13.0 mph 13.0 mph 72 % 0.0 in
04:18 8.8 °F 4.0 °F 1029.3 in North 16.7 mph 16.7 mph 72 % 0.0 in
04:21 8.8 °F 4.0 °F 1029.3 in North 16.1 mph 16.1 mph 72 % 0.0 in
04:22 8.8 °F 4.0 °F 1029.3 in North 18.5 mph 18.5 mph 72 % 0.0 in
04:26 8.8 °F 3.8 °F 1029.0 in North 20.4 mph 20.4 mph 71 % 0.0 in
04:28 8.8 °F 3.8 °F 1029.0 in North 16.7 mph 16.7 mph 71 % 0.0 in
04:29 8.8 °F 3.8 °F 1029.3 in NNE 16.7 mph 16.7 mph 71 % 0.0 in
04:31 8.8 °F 3.8 °F 1029.3 in North 16.7 mph 16.7 mph 71 % 0.0 in
04:36 8.7 °F 3.8 °F 1029.3 in North 16.7 mph 16.7 mph 71 % 0.0 in
04:38 8.7 °F 3.7 °F 1029.3 in North 14.8 mph 14.8 mph 71 % 0.0 in
04:41 8.6 °F 3.7 °F 1029.0 in North 17.7 mph 17.7 mph 71 % 0.0 in
04:46 8.6 °F 3.7 °F 1029.3 in North 18.5 mph 18.5 mph 71 % 0.0 in
04:51 8.6 °F 3.6 °F 1029.0 in North 13.0 mph 13.0 mph 71 % 0.0 in
04:56 8.5 °F 3.6 °F 1029.0 in North 14.8 mph 14.8 mph 71 % 0.0 in
05:01 8.4 °F 3.5 °F 1029.0 in North 18.5 mph 18.5 mph 71 % 0.0 in
05:06 8.4 °F 3.3 °F 1029.0 in North 16.7 mph 16.7 mph 70 % 0.0 in
05:11 8.5 °F 3.3 °F 1029.0 in North 18.5 mph 18.5 mph 70 % 0.0 in
05:21 8.4 °F 3.0 °F 1029.0 in North 18.5 mph 18.5 mph 69 % 0.0 in
05:26 8.4 °F 2.8 °F 1029.0 in North 18.5 mph 18.5 mph 68 % 0.0 in
05:31 8.3 °F 2.8 °F 1029.0 in North 18.5 mph 18.5 mph 68 % 0.0 in
05:36 8.3 °F 2.7 °F 1029.0 in North 14.8 mph 14.8 mph 68 % 0.0 in
05:41 8.2 °F 2.7 °F 1029.0 in NNE 16.7 mph 16.7 mph 68 % 0.0 in
05:46 8.2 °F 2.6 °F 1029.0 in NNW 16.7 mph 16.7 mph 68 % 0.0 in
05:51 8.1 °F 2.6 °F 1029.0 in NNW 14.8 mph 14.8 mph 68 % 0.0 in
05:52 8.1 °F 2.6 °F 1029.0 in North 16.7 mph 16.7 mph 68 % 0.0 in
05:57 8.1 °F 2.6 °F 1029.0 in North 14.8 mph 14.8 mph 68 % 0.0 in
06:02 8.1 °F 2.5 °F 1029.0 in NNW 18.5 mph 18.5 mph 68 % 0.0 in
06:03 8.1 °F 2.5 °F 1029.0 in North 18.5 mph 18.5 mph 68 % 0.0 in
06:08 8.0 °F 2.4 °F 1029.0 in NNE 18.5 mph 18.5 mph 68 % 0.0 in
06:13 8.0 °F 2.4 °F 1029.0 in NNW 14.8 mph 14.8 mph 68 % 0.0 in
06:18 8.1 °F 2.3 °F 1029.0 in North 18.5 mph 18.5 mph 67 % 0.0 in
06:23 8.0 °F 2.2 °F 1029.0 in NNE 18.5 mph 18.5 mph 67 % 0.0 in
06:28 8.0 °F 2.2 °F 1029.3 in North 16.7 mph 16.7 mph 67 % 0.0 in
06:33 8.1 °F 2.3 °F 1029.3 in North 18.5 mph 18.5 mph 67 % 0.0 in
06:38 8.0 °F 2.1 °F 1029.3 in North 18.5 mph 18.5 mph 66 % 0.0 in
06:43 7.9 °F 2.0 °F 1029.3 in NNE 14.8 mph 14.8 mph 66 % 0.0 in
06:48 8.0 °F 2.1 °F 1029.3 in North 18.5 mph 18.5 mph 66 % 0.0 in
06:53 8.0 °F 1.8 °F 1029.3 in NNE 18.5 mph 18.5 mph 65 % 0.0 in
06:58 8.0 °F 1.8 °F 1029.3 in North 16.7 mph 16.7 mph 65 % 0.0 in
07:03 8.0 °F 1.6 °F 1029.3 in North 18.5 mph 18.5 mph 64 % 0.0 in
07:08 8.1 °F 1.7 °F 1029.3 in NNE 18.5 mph 18.5 mph 64 % 0.0 in
07:13 8.1 °F 1.7 °F 1029.3 in North 18.5 mph 18.5 mph 64 % 0.0 in
07:18 8.1 °F 1.4 °F 1029.7 in North 18.5 mph 18.5 mph 63 % 0.0 in
07:23 8.0 °F 1.4 °F 1029.7 in North 18.5 mph 18.5 mph 63 % 0.0 in
07:28 8.0 °F 1.4 °F 1029.7 in North 16.7 mph 16.7 mph 63 % 0.0 in
07:33 8.1 °F 1.2 °F 1029.7 in North 20.4 mph 20.4 mph 62 % 0.0 in
07:38 8.1 °F 1.3 °F 1029.7 in North 20.4 mph 20.4 mph 62 % 0.0 in
07:43 8.1 °F 1.1 °F 1029.7 in North 18.5 mph 18.5 mph 61 % 0.0 in
07:48 8.1 °F 1.3 °F 1029.7 in North 18.5 mph 18.5 mph 62 % 0.0 in
07:53 8.1 °F 1.2 °F 1030.0 in North 18.5 mph 18.5 mph 62 % 0.0 in
07:58 8.1 °F 1.2 °F 1030.0 in North 18.5 mph 18.5 mph 62 % 0.0 in
08:03 8.0 °F 1.4 °F 1030.0 in North 16.7 mph 16.7 mph 63 % 0.0 in
08:08 7.9 °F 1.3 °F 1030.0 in NNW 18.5 mph 18.5 mph 63 % 0.0 in
08:13 7.8 °F 1.2 °F 1030.0 in North 16.7 mph 16.7 mph 63 % 0.0 in
08:18 7.8 °F 1.2 °F 1030.4 in North 18.5 mph 18.5 mph 63 % 0.0 in
08:23 7.8 °F 1.2 °F 1030.4 in NNE 18.5 mph 18.5 mph 63 % 0.0 in
08:28 7.8 °F 1.2 °F 1030.4 in North 18.5 mph 18.5 mph 63 % 0.0 in
08:33 7.8 °F 1.0 °F 1030.4 in North 18.5 mph 18.5 mph 62 % 0.0 in
08:38 7.8 °F 1.2 °F 1030.4 in North 18.5 mph 18.5 mph 63 % 0.0 in
08:43 7.8 °F 1.2 °F 1030.4 in North 18.5 mph 18.5 mph 63 % 0.0 in
08:48 7.9 °F 1.3 °F 1030.7 in North 16.7 mph 16.7 mph 63 % 0.0 in
08:53 7.9 °F 1.3 °F 1030.7 in North 18.5 mph 18.5 mph 63 % 0.0 in
08:58 8.1 °F 1.4 °F 1030.7 in North 16.7 mph 16.7 mph 63 % 0.0 in
09:03 8.2 °F 1.6 °F 1030.7 in North 18.5 mph 18.5 mph 63 % 0.0 in
09:08 8.5 °F 1.4 °F 1030.7 in North 18.5 mph 18.5 mph 61 % 0.0 in
09:13 8.7 °F 1.4 °F 1030.7 in NNE 18.5 mph 18.5 mph 60 % 0.0 in
09:18 9.0 °F 1.9 °F 1030.7 in North 14.8 mph 14.8 mph 61 % 0.0 in
09:23 9.3 °F 2.1 °F 1030.7 in North 18.5 mph 18.5 mph 61 % 0.0 in
09:28 9.4 °F 2.1 °F 1031.0 in North 18.5 mph 18.5 mph 60 % 0.0 in
09:33 9.6 °F 2.2 °F 1031.0 in North 14.8 mph 14.8 mph 60 % 0.0 in
09:38 9.6 °F 2.4 °F 1031.0 in NNE 11.1 mph 11.1 mph 61 % 0.0 in
09:43 10.1 °F 3.6 °F 1031.0 in NNE 16.7 mph 16.7 mph 64 % 0.0 in
09:48 10.4 °F 3.9 °F 1031.0 in North 13.0 mph 13.0 mph 64 % 0.0 in
09:53 11.3 °F 5.8 °F 1031.0 in NNE 16.7 mph 16.7 mph 69 % 0.0 in
09:54 11.3 °F 5.4 °F 1031.0 in NNE 16.7 mph 16.7 mph 67 % 0.0 in
09:59 11.7 °F 5.5 °F 1031.0 in NE 13.0 mph 13.0 mph 66 % 0.0 in
10:04 12.6 °F 7.2 °F 1031.4 in NE 20.9 mph 20.9 mph 70 % 0.0 in
10:09 13.1 °F 7.6 °F 1031.4 in ENE 22.2 mph 22.2 mph 69 % 0.0 in
10:14 13.2 °F 7.2 °F 1031.4 in ENE 25.9 mph 25.9 mph 67 % 0.0 in
10:19 13.3 °F 7.5 °F 1031.4 in ENE 24.1 mph 24.1 mph 68 % 0.0 in
10:24 13.3 °F 7.3 °F 1031.4 in NE 25.9 mph 25.9 mph 67 % 0.0 in
10:29 13.3 °F 7.6 °F 1031.7 in ENE 24.1 mph 24.1 mph 68 % 0.0 in
10:34 13.4 °F 7.7 °F 1031.7 in ENE 25.9 mph 25.9 mph 68 % 0.0 in
10:39 13.4 °F 7.4 °F 1031.7 in ENE 18.5 mph 18.5 mph 67 % 0.0 in
10:44 13.4 °F 7.7 °F 1031.7 in ENE 24.1 mph 24.1 mph 68 % 0.0 in
10:49 13.5 °F 7.7 °F 1031.7 in ENE 27.4 mph 27.4 mph 68 % 0.0 in
10:54 13.5 °F 7.7 °F 1031.7 in East 24.1 mph 24.1 mph 68 % 0.0 in
10:59 13.5 °F 7.7 °F 1032.1 in ENE 24.1 mph 24.1 mph 68 % 0.0 in
11:04 13.6 °F 7.8 °F 1032.1 in East 24.1 mph 24.1 mph 68 % 0.0 in
11:09 13.7 °F 7.9 °F 1032.1 in East 22.5 mph 22.5 mph 68 % 0.0 in
11:14 13.7 °F 7.4 °F 1032.1 in ENE 24.1 mph 24.1 mph 66 % 0.0 in
11:19 13.7 °F 7.7 °F 1032.1 in East 20.9 mph 20.9 mph 67 % 0.0 in
11:24 13.7 °F 7.5 °F 1032.1 in ENE 27.8 mph 27.8 mph 66 % 0.0 in
11:29 13.7 °F 7.5 °F 1032.1 in East 27.4 mph 27.4 mph 66 % 0.0 in
11:34 13.8 °F 8.0 °F 1032.1 in ENE 25.9 mph 25.9 mph 68 % 0.0 in
11:39 13.8 °F 7.8 °F 1032.1 in ENE 27.4 mph 27.4 mph 67 % 0.0 in
11:44 13.8 °F 8.0 °F 1032.1 in East 22.2 mph 22.2 mph 68 % 0.0 in
11:49 13.8 °F 8.2 °F 1032.1 in East 22.5 mph 22.5 mph 69 % 0.0 in
11:54 13.8 °F 7.8 °F 1032.1 in ESE 24.1 mph 24.1 mph 67 % 0.0 in
11:59 13.8 °F 7.6 °F 1032.1 in ESE 25.9 mph 25.9 mph 66 % 0.0 in
12:04 13.9 °F 7.8 °F 1032.1 in East 27.8 mph 27.8 mph 67 % 0.0 in
12:09 13.9 °F 7.8 °F 1032.1 in ESE 20.4 mph 20.4 mph 67 % 0.0 in
12:14 13.9 °F 8.1 °F 1032.1 in East 22.5 mph 22.5 mph 68 % 0.0 in
12:19 13.9 °F 8.1 °F 1032.1 in ESE 27.8 mph 27.8 mph 68 % 0.0 in
12:24 13.9 °F 8.1 °F 1032.1 in ESE 25.9 mph 25.9 mph 68 % 0.0 in
12:29 13.9 °F 7.9 °F 1032.1 in ESE 29.6 mph 29.6 mph 67 % 0.0 in
12:34 13.9 °F 7.8 °F 1032.1 in ESE 25.9 mph 25.9 mph 67 % 0.0 in
12:35 13.9 °F 7.8 °F 1032.1 in ESE 24.1 mph 27.4 mph 67 % 0.0 in
12:40 13.9 °F 7.6 °F 1032.1 in East 29.6 mph 29.6 mph 66 % 0.0 in
12:45 13.9 °F 7.8 °F 1032.1 in ESE 22.5 mph 27.4 mph 67 % 0.0 in
12:50 13.8 °F 7.6 °F 1032.1 in ESE 24.1 mph 27.4 mph 66 % 0.0 in
12:55 13.9 °F 8.3 °F 1031.7 in ESE 27.8 mph 27.8 mph 69 % 0.0 in
13:00 13.9 °F 7.4 °F 1031.7 in ESE 25.7 mph 32.2 mph 65 % 0.0 in
13:05 13.9 °F 7.9 °F 1031.7 in ESE 24.1 mph 27.4 mph 67 % 0.0 in
13:10 14.0 °F 8.2 °F 1031.7 in East 27.8 mph 27.8 mph 68 % 0.0 in
13:15 13.9 °F 7.9 °F 1031.7 in ESE 24.1 mph 33.8 mph 67 % 0.0 in
13:20 13.9 °F 7.9 °F 1031.7 in East 24.1 mph 24.1 mph 67 % 0.0 in
13:25 13.9 °F 8.1 °F 1031.7 in ESE 24.1 mph 27.4 mph 68 % 0.0 in
13:30 13.9 °F 8.3 °F 1031.4 in ESE 25.9 mph 25.9 mph 69 % 0.0 in
13:35 14.0 °F 8.4 °F 1031.4 in ESE 29.6 mph 29.6 mph 69 % 0.0 in
13:40 13.9 °F 7.8 °F 1031.4 in ESE 24.1 mph 29.0 mph 67 % 0.0 in
13:45 14.0 °F 8.6 °F 1031.4 in East 29.6 mph 29.6 mph 70 % 0.0 in
13:50 13.9 °F 7.9 °F 1031.4 in East 25.7 mph 25.7 mph 67 % 0.0 in
13:55 14.0 °F 8.2 °F 1031.4 in ESE 25.7 mph 32.2 mph 68 % 0.0 in
14:00 13.9 °F 8.1 °F 1031.4 in ESE 31.5 mph 31.5 mph 68 % 0.0 in
14:10 13.9 °F 7.9 °F 1031.4 in ESE 29.0 mph 35.4 mph 67 % 0.0 in
14:15 13.9 °F 7.9 °F 1031.4 in East 24.1 mph 32.2 mph 67 % 0.0 in
14:20 13.9 °F 8.1 °F 1031.4 in ESE 31.5 mph 31.5 mph 68 % 0.0 in
14:25 13.9 °F 8.6 °F 1031.0 in East 25.7 mph 32.2 mph 70 % 0.0 in
14:30 13.9 °F 8.3 °F 1031.0 in East 38.9 mph 38.9 mph 69 % 0.0 in
14:35 14.0 °F 8.6 °F 1031.0 in East 37.0 mph 37.0 mph 70 % 0.0 in
14:40 13.9 °F 8.6 °F 1031.0 in East 31.5 mph 31.5 mph 70 % 0.0 in
14:45 14.0 °F 8.4 °F 1031.0 in East 29.6 mph 29.6 mph 69 % 0.0 in
14:50 13.9 °F 7.9 °F 1031.0 in East 20.9 mph 25.7 mph 67 % 0.0 in
14:55 14.1 °F 8.3 °F 1031.0 in East 22.5 mph 29.0 mph 68 % 0.0 in
15:00 14.1 °F 8.5 °F 1031.0 in East 29.6 mph 29.6 mph 69 % 0.0 in
15:05 14.1 °F 8.2 °F 1031.0 in East 27.4 mph 33.8 mph 68 % 0.0 in
15:10 14.1 °F 7.6 °F 1031.0 in ENE 31.5 mph 31.5 mph 65 % 0.0 in
15:15 14.1 °F 7.6 °F 1031.0 in ENE 29.6 mph 29.6 mph 65 % 0.0 in
15:20 14.2 °F 8.1 °F 1031.0 in ENE 27.8 mph 27.8 mph 67 % 0.0 in
15:25 14.2 °F 7.9 °F 1031.0 in ENE 29.6 mph 29.6 mph 66 % 0.0 in
15:30 14.2 °F 7.9 °F 1031.0 in ENE 22.5 mph 32.2 mph 66 % 0.0 in
15:31 14.2 °F 7.9 °F 1031.0 in East 24.1 mph 24.1 mph 66 % 0.0 in
15:36 14.2 °F 8.2 °F 1031.0 in East 29.6 mph 29.6 mph 67 % 0.0 in
15:41 14.2 °F 7.9 °F 1031.0 in East 31.5 mph 31.5 mph 66 % 0.0 in
15:46 14.2 °F 8.6 °F 1031.0 in East 24.1 mph 24.1 mph 69 % 0.0 in
15:51 14.3 °F 7.6 °F 1031.0 in East 33.8 mph 33.8 mph 64 % 0.0 in
15:56 14.3 °F 7.6 °F 1031.0 in East 31.5 mph 31.5 mph 64 % 0.0 in
15:57 14.3 °F 7.6 °F 1031.0 in East 31.5 mph 31.5 mph 64 % 0.0 in
16:02 14.3 °F 7.6 °F 1031.0 in East 29.6 mph 29.6 mph 64 % 0.0 in
16:07 14.3 °F 8.0 °F 1031.0 in East 29.6 mph 29.6 mph 66 % 0.0 in
16:12 14.2 °F 7.4 °F 1031.0 in ESE 31.5 mph 31.5 mph 64 % 0.0 in
16:17 14.2 °F 7.2 °F 1031.0 in East 30.6 mph 30.6 mph 63 % 0.0 in
16:22 14.3 °F 7.1 °F 1031.0 in East 29.6 mph 29.6 mph 62 % 0.0 in
16:27 14.3 °F 7.3 °F 1031.0 in East 33.8 mph 33.8 mph 63 % 0.0 in
16:32 14.2 °F 7.7 °F 1031.0 in East 33.3 mph 33.3 mph 65 % 0.0 in
16:37 14.1 °F 7.8 °F 1031.0 in East 31.5 mph 31.5 mph 66 % 0.0 in
16:42 14.2 °F 7.4 °F 1031.0 in East 33.3 mph 33.3 mph 64 % 0.0 in
16:47 14.2 °F 7.9 °F 1031.0 in ENE 35.2 mph 35.2 mph 66 % 0.0 in
16:52 14.0 °F 7.9 °F 1031.0 in East 33.3 mph 33.3 mph 67 % 0.0 in
16:57 14.0 °F 8.2 °F 1031.0 in East 29.6 mph 29.6 mph 68 % 0.0 in
17:02 14.1 °F 8.2 °F 1031.0 in East 25.9 mph 25.9 mph 68 % 0.0 in
17:07 14.1 °F 8.2 °F 1031.0 in ENE 31.5 mph 31.5 mph 68 % 0.0 in
17:12 14.1 °F 7.8 °F 1031.0 in East 33.3 mph 33.3 mph 66 % 0.0 in
17:17 14.0 °F 7.5 °F 1031.4 in East 29.6 mph 29.6 mph 65 % 0.0 in
17:22 14.0 °F 7.7 °F 1031.4 in East 27.8 mph 27.8 mph 66 % 0.0 in
17:27 14.0 °F 8.2 °F 1031.4 in ENE 27.8 mph 27.8 mph 68 % 0.0 in
17:32 14.0 °F 7.7 °F 1031.4 in East 25.9 mph 25.9 mph 66 % 0.0 in
17:37 14.1 °F 8.0 °F 1031.4 in East 27.8 mph 27.8 mph 67 % 0.0 in
17:42 14.1 °F 8.2 °F 1031.4 in ENE 27.8 mph 27.8 mph 68 % 0.0 in
17:47 14.1 °F 8.4 °F 1031.4 in East 31.5 mph 31.5 mph 69 % 0.0 in
17:52 14.0 °F 8.2 °F 1031.4 in East 31.5 mph 31.5 mph 68 % 0.0 in
17:57 13.9 °F 8.1 °F 1031.7 in ENE 24.1 mph 24.1 mph 68 % 0.0 in
18:02 13.8 °F 8.2 °F 1031.7 in East 31.5 mph 31.5 mph 69 % 0.0 in
18:03 13.8 °F 8.0 °F 1031.7 in ENE 31.5 mph 31.5 mph 68 % 0.0 in
18:08 13.9 °F 8.5 °F 1031.7 in East 24.1 mph 24.1 mph 70 % 0.0 in
18:13 13.8 °F 8.2 °F 1031.7 in ENE 24.1 mph 24.1 mph 69 % 0.0 in
18:18 13.7 °F 7.9 °F 1031.7 in ENE 22.2 mph 22.2 mph 68 % 0.0 in
18:23 13.7 °F 8.1 °F 1031.7 in ENE 19.3 mph 19.3 mph 69 % 0.0 in
18:28 13.6 °F 8.0 °F 1031.7 in ENE 22.2 mph 22.2 mph 69 % 0.0 in
18:33 13.6 °F 8.0 °F 1031.7 in ENE 22.2 mph 22.2 mph 69 % 0.0 in
18:38 13.5 °F 7.9 °F 1032.1 in ENE 18.5 mph 18.5 mph 69 % 0.0 in
18:43 13.4 °F 7.7 °F 1032.1 in ENE 18.5 mph 18.5 mph 68 % 0.0 in
18:48 13.4 °F 7.9 °F 1032.1 in ENE 18.5 mph 18.5 mph 69 % 0.0 in
18:53 13.4 °F 7.8 °F 1032.1 in ENE 18.5 mph 18.5 mph 69 % 0.0 in
18:58 13.4 °F 7.8 °F 1032.1 in ENE 18.5 mph 18.5 mph 69 % 0.0 in
19:03 13.4 °F 7.6 °F 1032.1 in NE 18.5 mph 18.5 mph 68 % 0.0 in
19:08 13.3 °F 7.6 °F 1032.1 in NE 20.4 mph 20.4 mph 68 % 0.0 in
19:13 13.3 °F 7.5 °F 1032.1 in NE 16.7 mph 16.7 mph 68 % 0.0 in
19:23 13.3 °F 7.5 °F 1032.4 in NE 16.7 mph 16.7 mph 68 % 0.0 in
19:28 13.2 °F 7.2 °F 1032.4 in NE 17.7 mph 17.7 mph 67 % 0.0 in
19:33 13.3 °F 7.5 °F 1032.4 in NNE 16.7 mph 16.7 mph 68 % 0.0 in
19:38 13.2 °F 7.4 °F 1032.4 in NE 16.7 mph 16.7 mph 68 % 0.0 in
19:43 13.2 °F 7.4 °F 1032.4 in NNE 14.8 mph 14.8 mph 68 % 0.0 in
19:48 13.2 °F 7.4 °F 1032.4 in NE 14.8 mph 14.8 mph 68 % 0.0 in
19:53 13.2 °F 7.7 °F 1032.4 in NE 13.0 mph 13.0 mph 69 % 0.0 in
19:58 13.2 °F 7.6 °F 1032.7 in NE 13.0 mph 13.0 mph 69 % 0.0 in
20:03 13.2 °F 7.6 °F 1032.4 in NE 16.7 mph 16.7 mph 69 % 0.0 in
20:08 13.3 °F 7.9 °F 1032.7 in NE 16.7 mph 16.7 mph 70 % 0.0 in
20:13 13.3 °F 7.8 °F 1032.7 in ENE 18.5 mph 18.5 mph 69 % 0.0 in
20:18 13.4 °F 7.9 °F 1032.7 in ENE 16.7 mph 16.7 mph 69 % 0.0 in
20:23 13.4 °F 8.0 °F 1032.7 in NE 16.7 mph 16.7 mph 70 % 0.0 in
20:28 13.4 °F 8.1 °F 1032.7 in ENE 16.7 mph 16.7 mph 70 % 0.0 in
20:33 13.4 °F 8.1 °F 1032.7 in NE 14.8 mph 14.8 mph 70 % 0.0 in
20:38 13.3 °F 8.2 °F 1032.7 in NE 18.5 mph 18.5 mph 71 % 0.0 in
20:43 13.4 °F 8.2 °F 1032.7 in ENE 16.7 mph 16.7 mph 71 % 0.0 in
20:48 13.4 °F 8.3 °F 1032.7 in NE 14.8 mph 14.8 mph 71 % 0.0 in
20:53 13.4 °F 8.2 °F 1032.7 in NE 16.7 mph 16.7 mph 71 % 0.0 in
20:58 13.3 °F 8.0 °F 1032.7 in NE 13.0 mph 13.0 mph 70 % 0.0 in
21:03 13.3 °F 8.2 °F 1032.7 in NE 13.0 mph 13.0 mph 71 % 0.0 in
21:08 13.3 °F 8.1 °F 1033.1 in NE 11.1 mph 11.1 mph 71 % 0.0 in
21:13 13.1 °F 7.9 °F 1033.1 in NNE 9.3 mph 9.3 mph 71 % 0.0 in
21:18 12.7 °F 7.6 °F 1033.1 in NE 14.8 mph 14.8 mph 71 % 0.0 in
21:23 12.4 °F 7.6 °F 1033.1 in NE 5.6 mph 5.6 mph 72 % 0.0 in
21:33 12.9 °F 8.2 °F 1033.1 in NE 16.7 mph 16.7 mph 73 % 0.0 in
21:38 13.1 °F 8.2 °F 1033.1 in NE 13.0 mph 13.0 mph 72 % 0.0 in
21:43 13.1 °F 8.2 °F 1033.1 in NE 9.3 mph 9.3 mph 72 % 0.0 in
21:48 12.8 °F 7.9 °F 1033.1 in NNE 11.1 mph 11.1 mph 72 % 0.0 in
21:53 12.5 °F 7.4 °F 1033.1 in NNE 5.6 mph 5.6 mph 71 % 0.0 in
21:58 12.6 °F 8.1 °F 1033.1 in ENE 14.8 mph 14.8 mph 74 % 0.0 in
22:03 13.2 °F 8.4 °F 1033.1 in ENE 14.5 mph 14.5 mph 73 % 0.0 in
22:08 13.4 °F 8.5 °F 1033.1 in NE 18.5 mph 18.5 mph 72 % 0.0 in
22:13 13.6 °F 8.4 °F 1033.1 in NNE 18.5 mph 18.5 mph 71 % 0.0 in
22:18 13.7 °F 8.7 °F 1033.1 in ENE 16.7 mph 16.7 mph 72 % 0.0 in
22:23 13.7 °F 8.5 °F 1033.1 in NE 18.5 mph 18.5 mph 71 % 0.0 in
22:28 13.7 °F 8.8 °F 1033.4 in ENE 16.7 mph 16.7 mph 72 % 0.0 in
22:33 13.7 °F 8.8 °F 1033.4 in ENE 14.8 mph 14.8 mph 72 % 0.0 in
22:38 13.7 °F 8.8 °F 1033.4 in ENE 14.8 mph 14.8 mph 72 % 0.0 in
22:43 13.6 °F 8.7 °F 1033.4 in NE 18.5 mph 18.5 mph 72 % 0.0 in
22:48 13.6 °F 8.6 °F 1033.4 in ENE 14.8 mph 14.8 mph 72 % 0.0 in
22:53 13.6 °F 8.7 °F 1033.4 in ENE 18.5 mph 18.5 mph 72 % 0.0 in
23:03 13.7 °F 8.7 °F 1033.4 in ENE 14.8 mph 14.8 mph 72 % 0.0 in
23:08 13.6 °F 8.6 °F 1033.4 in ENE 16.7 mph 16.7 mph 72 % 0.0 in
23:13 13.6 °F 8.6 °F 1033.4 in NE 13.0 mph 13.0 mph 72 % 0.0 in
23:18 13.4 °F 8.7 °F 1033.4 in NE 14.8 mph 14.8 mph 73 % 0.0 in
23:23 13.6 °F 8.6 °F 1033.4 in ENE 17.7 mph 17.7 mph 72 % 0.0 in
23:28 13.7 °F 8.7 °F 1033.4 in ENE 18.5 mph 18.5 mph 72 % 0.0 in
23:33 13.7 °F 8.7 °F 1033.4 in NE 18.5 mph 18.5 mph 72 % 0.0 in
23:38 13.7 °F 8.5 °F 1033.4 in ENE 18.5 mph 18.5 mph 71 % 0.0 in
23:43 13.7 °F 8.5 °F 1033.4 in NE 18.5 mph 18.5 mph 71 % 0.0 in
23:48 13.6 °F 8.4 °F 1033.4 in ENE 16.7 mph 16.7 mph 71 % 0.0 in
23:54 13.6 °F 8.4 °F 1033.4 in NE 16.7 mph 16.7 mph 71 % 0.0 in
23:59 13.5 °F 8.3 °F 1033.4 in NE 14.8 mph 14.8 mph 71 % 0.0 in
Puerto Banus, Marbella
Elogios de Weather Underground - 2.25 mb

Guión original por  Jim McMurry - jmcmurry@mwt.net Adaptado para la plantilla por  Wim van der Kuil - Leuven-Template.eu

Usted encontrará nuestra información del tiempo también en:

Weather Underground

Iberian Peninsula Weather Network